Weather History for Medford, OR

Change the Weather History Date:

Sunday, August 18, 2013

  Actual Average Record
Temperature  
Mean Temperature 79 °F 74 °F  
Max Temperature 97 °F 91 °F 107 °F (1967)
Min Temperature 61 °F 57 °F 41 °F (1913)
Degree Days  
Heating Degree Days 0 0  
Month to date heating degree days 0 0  
Since 1 June heating degree days 35 60  
Since 1 July heating degree days 0 6  
Cooling Degree Days 14 9  
Month to date cooling degree days 174 180  
Year to date cooling degree days 792 612  
Since 1 June cooling degree days 757 574  
Growing Degree Days 30 (Base 50)    
Moisture  
Dew Point 53 °F    
Average Humidity 49    
Maximum Humidity 78    
Minimum Humidity 20    
Precipitation  
Precipitation 0.00 in 0.01 in 0.78 in (1924)
Month to date precipitation 0.03 0.21  
Year to date precipitation 4.16 9.95  
Snow  
Snow 0.00 in 0.00 in - ()
Month to date snowfall 0.0 0.0  
Since 1 July snowfall 0.0 0.0  
Snow Depth 0.00 in    
Sea Level Pressure  
Sea Level Pressure 30.00 in    
Wind  
Wind Speed 3 mph (NNW)    
Max Wind Speed 16 mph    
Max Gust Speed 22 mph    
Visibility 9 miles    
Events      
T = Trace of Precipitation, MM = Missing Value Source: NWS Daily Summary

Daily Weather History Graph

Daily Weather History Graph

Search for Another Location

Airport:

Trip Planner

Search our weather history database for the weather conditions in past years. The results will help you decide how hot, cold, wet, or windy it might be!

Date:

Astronomy

Aug. 18, 2013 Rise Set
Actual Time 6:22 AM PDT 8:07 PM PDT
Civil Twilight 5:52 AM PDT 8:37 PM PDT
Nautical Twilight 5:15 AM PDT 9:13 PM PDT
Astronomical Twilight 4:36 AM PDT 9:52 PM PDT
Moon 6:18 PM PDT (8/18) 3:36 AM PDT (8/18)
Length of Visible Light 14h 45m
Length of Day
13h 45m
Waxing Gibbous, 93% of the Moon is Illuminated
Aug 18
Waxing Gibbous
Aug 20
Full
Aug 28
Last Quarter
Sep 5
New
Sep 12
First Quarter

Hourly Weather History & Observations

Time (PDT) Temp. Heat Index Dew Point Humidity Pressure Visibility Wind Dir Wind Speed Gust Speed Precip Events Conditions
12:53 AM 72.0 °F - 55.9 °F 57% 30.01 in 10.0 mi Calm Calm - N/A   Clear
1:53 AM 71.1 °F - 57.0 °F 61% 30.01 in 10.0 mi Calm Calm - N/A   Clear
2:53 AM 68.0 °F - 55.9 °F 65% 30.01 in 10.0 mi WNW 4.6 mph - N/A   Clear
3:53 AM 66.9 °F - 55.0 °F 66% 30.03 in 10.0 mi Calm Calm - N/A   Clear
4:53 AM 64.0 °F - 54.0 °F 70% 30.04 in 10.0 mi Calm Calm - N/A   Clear
5:53 AM 63.0 °F - 55.0 °F 75% 30.04 in 10.0 mi Calm Calm - N/A   Clear
6:53 AM 63.0 °F - 54.0 °F 72% 30.06 in 10.0 mi Calm Calm - N/A   Clear
7:53 AM 64.9 °F - 54.0 °F 68% 30.07 in 10.0 mi Calm Calm - N/A   Clear
8:53 AM 66.9 °F - 54.0 °F 63% 30.07 in 7.0 mi North 3.5 mph - N/A   Clear
9:53 AM 71.1 °F - 55.0 °F 57% 30.06 in 6.0 mi Calm Calm - N/A   Haze
10:53 AM 73.9 °F - 55.0 °F 52% 30.05 in 4.0 mi Calm Calm - N/A   Haze
11:53 AM 79.0 °F - 55.9 °F 45% 30.03 in 3.0 mi Variable 3.5 mph - N/A   Haze
12:53 PM 84.0 °F 82.9 °F 55.0 °F 37% 30.00 in 4.0 mi Calm Calm - N/A   Haze
1:53 PM 88.0 °F 85.7 °F 53.1 °F 30% 29.98 in 6.0 mi East 3.5 mph - N/A   Haze
2:53 PM 90.0 °F - 51.1 °F 26% 29.96 in 6.0 mi West 5.8 mph - N/A   Haze
3:53 PM 95.0 °F - 50.0 °F 22% 29.92 in 10.0 mi Variable 3.5 mph - N/A   Clear
4:53 PM 97.0 °F - 50.0 °F 20% 29.90 in 10.0 mi Variable 5.8 mph - N/A   Clear
5:53 PM 96.1 °F - 48.0 °F 19% 29.89 in 10.0 mi NNW 12.7 mph 17.3 mph N/A   Clear
6:53 PM 91.0 °F - 48.9 °F 23% 29.91 in 10.0 mi North 11.5 mph - N/A   Clear
7:53 PM 87.1 °F - 46.9 °F 25% 29.94 in 10.0 mi NNW 8.1 mph - N/A   Clear
8:53 PM 82.9 °F - 48.9 °F 31% 29.96 in 10.0 mi NNW 5.8 mph - N/A   Clear
9:53 PM 77.0 °F - 50.0 °F 39% 29.98 in 10.0 mi Calm Calm - N/A   Clear
10:53 PM 75.9 °F - 50.0 °F 40% 30.00 in 10.0 mi Calm Calm - N/A   Clear
11:53 PM 73.0 °F - 51.1 °F 46% 30.00 in 10.0 mi Calm Calm - N/A   Clear